Time,TemperatureF,DewpointF,PressureIn,WindDirection,WindDirectionDegrees,WindSpeedMPH,WindSpeedGustMPH,Humidity,HourlyPrecipIn,Conditions,Clouds,dailyrainin,SolarRadiationWatts/m^2,SoftwareType,DateUTC
2013-02-21 00:04:00,16.1,13.4,30.36,North,355,0.0,1.0,89,0.00,CLR,CLR,0.00,0.0,WeatherDisplay:10.37,2013-02-21 06:04:00,
2013-02-21 00:09:00,16.4,13.9,30.36,North,355,0.0,1.0,90,0.00,CLR,CLR,0.00,0.0,WeatherDisplay:10.37,2013-02-21 06:09:00,
2013-02-21 00:14:00,16.6,13.9,30.36,North,355,0.0,1.0,89,0.00,CLR,CLR,0.00,0.0,WeatherDisplay:10.37,2013-02-21 06:14:00,
2013-02-21 00:19:00,17.0,14.3,30.36,North,355,0.0,1.0,89,0.00,CLR,CLR,0.00,0.0,WeatherDisplay:10.37,2013-02-21 06:19:00,
2013-02-21 00:24:00,17.3,14.6,30.36,North,355,1.0,2.0,89,0.00,CLR,CLR,0.00,0.0,WeatherDisplay:10.37,2013-02-21 06:24:00,
2013-02-21 00:29:00,17.7,15.0,30.36,North,355,1.0,3.0,89,0.00,CLR,CLR,0.00,0.0,WeatherDisplay:10.37,2013-02-21 06:29:00,
2013-02-21 00:34:00,18.1,15.4,30.36,North,355,1.0,2.0,89,0.00,CLR,CLR,0.00,0.0,WeatherDisplay:10.37,2013-02-21 06:34:00,
2013-02-21 00:39:00,18.3,15.4,30.36,North,355,1.0,2.0,88,0.00,CLR,CLR,0.00,0.0,WeatherDisplay:10.37,2013-02-21 06:39:00,
2013-02-21 00:44:00,18.6,15.6,30.37,North,355,0.0,2.0,88,0.00,CLR,CLR,0.00,0.0,WeatherDisplay:10.37,2013-02-21 06:44:00,
2013-02-21 00:49:00,18.8,15.8,30.37,North,355,1.0,2.0,88,0.00,CLR,CLR,0.00,0.0,WeatherDisplay:10.37,2013-02-21 06:49:00,
2013-02-21 00:54:00,19.0,15.8,30.36,North,354,1.0,3.0,87,0.00,CLR,CLR,0.00,0.0,WeatherDisplay:10.37,2013-02-21 06:54:00,
2013-02-21 00:59:00,19.2,15.7,30.37,North,352,1.0,3.0,86,0.00,CLR,CLR,0.00,0.0,WeatherDisplay:10.37,2013-02-21 06:59:00,
2013-02-21 01:04:00,19.4,16.1,30.36,North,350,1.0,3.0,87,0.00,CLR,CLR,0.00,0.0,WeatherDisplay:10.37,2013-02-21 07:04:00,
2013-02-21 01:09:00,19.5,16.0,30.36,NNW,348,1.0,3.0,86,0.00,CLR,CLR,0.00,0.0,WeatherDisplay:10.37,2013-02-21 07:09:00,
2013-02-21 01:14:00,19.6,15.8,30.36,NNW,346,2.0,3.0,85,0.00,CLR,CLR,0.00,0.0,WeatherDisplay:10.37,2013-02-21 07:14:00,
2013-02-21 01:19:00,19.7,16.2,30.36,NNW,346,1.0,3.0,86,0.00,CLR,CLR,0.00,0.0,WeatherDisplay:10.37,2013-02-21 07:19:00,
2013-02-21 01:24:00,19.7,16.2,30.36,NNW,346,1.0,3.0,86,0.00,CLR,CLR,0.00,0.0,WeatherDisplay:10.37,2013-02-21 07:24:00,
2013-02-21 01:29:00,19.8,16.6,30.36,NNW,346,1.0,2.0,87,0.00,CLR,CLR,0.00,0.0,WeatherDisplay:10.37,2013-02-21 07:29:00,
2013-02-21 01:34:00,19.9,16.4,30.36,NNW,346,0.0,1.0,86,0.00,CLR,CLR,0.00,0.0,WeatherDisplay:10.37,2013-02-21 07:34:00,
2013-02-21 01:39:00,19.9,16.4,30.36,NNW,346,0.0,1.0,86,0.00,CLR,CLR,0.00,0.0,WeatherDisplay:10.37,2013-02-21 07:39:00,
2013-02-21 01:44:00,20.0,16.5,30.36,NNW,346,0.0,1.0,86,0.00,CLR,CLR,0.00,0.0,WeatherDisplay:10.37,2013-02-21 07:44:00,
2013-02-21 01:49:00,20.0,16.2,30.36,NNW,346,0.0,1.0,85,0.00,CLR,CLR,0.00,0.0,WeatherDisplay:10.37,2013-02-21 07:49:00,
2013-02-21 01:54:00,20.0,16.2,30.36,NNW,346,0.0,2.0,85,0.00,CLR,CLR,0.00,0.0,WeatherDisplay:10.37,2013-02-21 07:54:00,
2013-02-21 01:59:00,20.1,16.6,30.36,NNW,346,0.0,2.0,86,0.00,CLR,CLR,0.00,0.0,WeatherDisplay:10.37,2013-02-21 07:59:00,
2013-02-21 02:04:00,20.2,16.7,30.36,NNW,346,0.0,2.0,86,0.00,CLR,CLR,0.00,0.0,WeatherDisplay:10.37,2013-02-21 08:04:00,
2013-02-21 02:09:00,20.2,16.7,30.35,NNW,346,1.0,2.0,86,0.00,CLR,CLR,0.00,0.0,WeatherDisplay:10.37,2013-02-21 08:09:00,
2013-02-21 02:14:00,20.3,16.5,30.35,NNW,346,0.0,3.0,85,0.00,CLR,CLR,0.00,0.0,WeatherDisplay:10.37,2013-02-21 08:14:00,
2013-02-21 02:19:00,20.3,16.5,30.35,NNW,346,0.0,2.0,85,0.00,CLR,CLR,0.00,0.0,WeatherDisplay:10.37,2013-02-21 08:19:00,
2013-02-21 02:24:00,20.3,16.5,30.35,NNW,341,1.0,3.0,85,0.00,CLR,CLR,0.00,0.0,WeatherDisplay:10.37,2013-02-21 08:24:00,
2013-02-21 02:29:00,20.3,16.2,30.34,NW,323,2.0,4.0,84,0.00,CLR,CLR,0.00,0.0,WeatherDisplay:10.37,2013-02-21 08:29:00,
2013-02-21 02:34:00,20.4,16.6,30.34,NW,316,2.0,4.0,85,0.00,CLR,CLR,0.00,0.0,WeatherDisplay:10.37,2013-02-21 08:34:00,
2013-02-21 02:39:00,20.4,16.6,30.34,NW,313,1.0,3.0,85,0.00,CLR,CLR,0.00,0.0,WeatherDisplay:10.37,2013-02-21 08:39:00,
2013-02-21 02:44:00,20.4,16.9,30.34,NW,313,1.0,2.0,86,0.00,CLR,CLR,0.00,0.0,WeatherDisplay:10.37,2013-02-21 08:44:00,
2013-02-21 02:49:00,20.5,17.2,30.34,NW,313,1.0,3.0,87,0.00,CLR,CLR,0.00,0.0,WeatherDisplay:10.37,2013-02-21 08:49:00,
2013-02-21 02:54:00,20.5,17.0,30.34,NW,313,1.0,2.0,86,0.00,CLR,CLR,0.00,0.0,WeatherDisplay:10.37,2013-02-21 08:54:00,
2013-02-21 02:59:00,20.5,17.0,30.33,NW,313,1.0,2.0,86,0.00,CLR,CLR,0.00,0.0,WeatherDisplay:10.37,2013-02-21 08:59:00,
2013-02-21 03:04:00,20.5,17.0,30.33,NW,313,1.0,3.0,86,0.00,CLR,CLR,0.00,0.0,WeatherDisplay:10.37,2013-02-21 09:04:00,
2013-02-21 03:09:00,20.6,17.1,30.33,NW,313,1.0,3.0,86,0.00,CLR,CLR,0.00,0.0,WeatherDisplay:10.37,2013-02-21 09:09:00,
2013-02-21 03:14:00,20.6,17.1,30.33,NW,313,1.0,2.0,86,0.00,CLR,CLR,0.00,0.0,WeatherDisplay:10.37,2013-02-21 09:14:00,
2013-02-21 03:19:00,20.7,17.4,30.33,NW,313,1.0,2.0,87,0.00,CLR,CLR,0.00,0.0,WeatherDisplay:10.37,2013-02-21 09:19:00,
2013-02-21 03:24:00,20.7,17.2,30.34,NW,313,0.0,3.0,86,0.00,CLR,CLR,0.00,0.0,WeatherDisplay:10.37,2013-02-21 09:24:00,
2013-02-21 03:29:00,20.7,16.9,30.33,NW,313,1.0,2.0,85,0.00,CLR,CLR,0.00,0.0,WeatherDisplay:10.37,2013-02-21 09:29:00,
2013-02-21 03:34:00,20.8,17.0,30.33,NW,313,1.0,3.0,85,0.00,CLR,CLR,0.00,0.0,WeatherDisplay:10.37,2013-02-21 09:34:00,
2013-02-21 03:39:00,20.8,17.3,30.34,NW,313,1.0,2.0,86,0.00,CLR,CLR,0.00,0.0,WeatherDisplay:10.37,2013-02-21 09:39:00,
2013-02-21 03:44:00,20.8,17.3,30.34,NW,313,1.0,2.0,86,0.00,CLR,CLR,0.00,0.0,WeatherDisplay:10.37,2013-02-21 09:44:00,
2013-02-21 03:49:00,20.9,17.1,30.34,NW,313,1.0,3.0,85,0.00,CLR,CLR,0.00,0.0,WeatherDisplay:10.37,2013-02-21 09:49:00,
2013-02-21 03:54:00,20.9,17.1,30.35,NW,313,1.0,3.0,85,0.00,CLR,CLR,0.00,0.0,WeatherDisplay:10.37,2013-02-21 09:54:00,
2013-02-21 03:59:00,21.0,17.5,30.35,NW,313,1.0,3.0,86,0.00,CLR,CLR,0.00,0.0,WeatherDisplay:10.37,2013-02-21 09:59:00,
2013-02-21 04:04:00,21.1,17.6,30.35,NW,313,0.0,2.0,86,0.00,CLR,CLR,0.00,0.0,WeatherDisplay:10.37,2013-02-21 10:04:00,
2013-02-21 04:09:00,21.2,17.3,30.35,NW,316,1.0,4.0,85,0.00,CLR,CLR,0.00,0.0,WeatherDisplay:10.37,2013-02-21 10:09:00,
2013-02-21 04:14:00,21.2,17.4,30.35,NW,318,2.0,3.0,85,0.00,CLR,CLR,0.00,0.0,WeatherDisplay:10.37,2013-02-21 10:14:00,
2013-02-21 04:19:00,21.2,17.4,30.36,NW,319,1.0,3.0,85,0.00,CLR,CLR,0.00,0.0,WeatherDisplay:10.37,2013-02-21 10:19:00,
2013-02-21 04:24:00,21.3,17.5,30.36,NW,320,1.0,3.0,85,0.00,CLR,CLR,0.00,0.0,WeatherDisplay:10.37,2013-02-21 10:24:00,
2013-02-21 04:29:00,21.3,17.5,30.36,NNW,328,1.0,3.0,85,0.00,CLR,CLR,0.00,0.0,WeatherDisplay:10.37,2013-02-21 10:29:00,
2013-02-21 04:34:00,21.3,17.2,30.35,NNW,333,1.0,3.0,84,0.00,CLR,CLR,0.00,0.0,WeatherDisplay:10.37,2013-02-21 10:34:00,
2013-02-21 04:39:00,21.3,17.5,30.36,NNW,334,2.0,3.0,85,0.00,CLR,CLR,0.00,0.0,WeatherDisplay:10.37,2013-02-21 10:39:00,
2013-02-21 04:44:00,21.3,17.5,30.35,NNW,348,1.0,4.0,85,0.00,CLR,CLR,0.00,0.0,WeatherDisplay:10.37,2013-02-21 10:44:00,
2013-02-21 04:49:00,21.3,17.2,30.35,North,0,0.0,4.0,84,0.00,CLR,CLR,0.00,0.0,WeatherDisplay:10.37,2013-02-21 10:49:00,
2013-02-21 04:54:00,21.3,17.2,30.35,North,360,1.0,3.0,84,0.00,CLR,CLR,0.00,0.0,WeatherDisplay:10.37,2013-02-21 10:54:00,
2013-02-21 04:59:00,21.3,16.9,30.35,North,353,3.0,4.0,83,0.00,CLR,CLR,0.00,0.0,WeatherDisplay:10.37,2013-02-21 10:59:00,
2013-02-21 05:04:00,21.3,16.9,30.34,NNW,341,2.0,5.0,83,0.00,CLR,CLR,0.00,0.0,WeatherDisplay:10.37,2013-02-21 11:04:00,
2013-02-21 05:09:00,21.2,17.1,30.35,NNW,337,2.0,3.0,84,0.00,CLR,CLR,0.00,0.0,WeatherDisplay:10.37,2013-02-21 11:09:00,
2013-02-21 05:14:00,21.3,17.2,30.35,NNW,340,0.0,2.0,84,0.00,CLR,CLR,0.00,0.0,WeatherDisplay:10.37,2013-02-21 11:14:00,
2013-02-21 05:19:00,21.3,17.5,30.36,NNW,340,0.0,3.0,85,0.00,CLR,CLR,0.00,0.0,WeatherDisplay:10.37,2013-02-21 11:19:00,
2013-02-21 05:24:00,21.4,17.6,30.36,NNW,340,0.0,2.0,85,0.00,CLR,CLR,0.00,0.0,WeatherDisplay:10.37,2013-02-21 11:24:00,
2013-02-21 05:29:00,21.4,17.4,30.36,NNW,340,0.0,2.0,84,0.00,CLR,CLR,0.00,0.0,WeatherDisplay:10.37,2013-02-21 11:29:00,
2013-02-21 05:34:00,21.5,17.1,30.35,NNW,340,1.0,3.0,83,0.00,CLR,CLR,0.00,0.0,WeatherDisplay:10.37,2013-02-21 11:34:00,
2013-02-21 05:39:00,21.6,16.9,30.35,NNW,340,0.0,2.0,82,0.00,CLR,CLR,0.00,0.0,WeatherDisplay:10.37,2013-02-21 11:39:00,
2013-02-21 05:44:00,21.7,17.3,30.33,North,10,2.0,4.0,83,0.00,CLR,CLR,0.00,0.0,WeatherDisplay:10.37,2013-02-21 11:44:00,
2013-02-21 05:49:00,21.7,17.1,30.33,North,7,2.0,4.0,82,0.00,CLR,CLR,0.00,0.0,WeatherDisplay:10.37,2013-02-21 11:49:00,
2013-02-21 05:54:00,21.7,17.1,30.32,North,5,2.0,4.0,82,0.00,CLR,CLR,0.00,0.0,WeatherDisplay:10.37,2013-02-21 11:54:00,
2013-02-21 05:59:00,21.8,17.1,30.32,North,358,2.0,4.0,82,0.00,CLR,CLR,0.00,0.0,WeatherDisplay:10.37,2013-02-21 11:59:00,
2013-02-21 06:04:00,21.8,17.2,30.33,NNW,347,2.0,4.0,82,0.00,CLR,CLR,0.00,0.0,WeatherDisplay:10.37,2013-02-21 12:04:00,
2013-02-21 06:09:00,21.9,17.2,30.33,NNW,344,0.0,3.0,82,0.00,CLR,CLR,0.00,0.0,WeatherDisplay:10.37,2013-02-21 12:09:00,
2013-02-21 06:14:00,22.0,17.0,30.34,NNW,340,0.0,2.0,81,0.00,CLR,CLR,0.00,0.0,WeatherDisplay:10.37,2013-02-21 12:14:00,
2013-02-21 06:19:00,22.0,17.3,30.34,NNW,340,1.0,2.0,82,0.00,CLR,CLR,0.00,0.0,WeatherDisplay:10.37,2013-02-21 12:19:00,
2013-02-21 06:24:00,22.1,17.7,30.34,NNW,340,1.0,3.0,83,0.00,CLR,CLR,0.00,0.0,WeatherDisplay:10.37,2013-02-21 12:24:00,
2013-02-21 06:29:00,22.1,17.4,30.34,NNW,340,1.0,2.0,82,0.00,CLR,CLR,0.00,0.0,WeatherDisplay:10.37,2013-02-21 12:29:00,
2013-02-21 06:34:00,22.2,17.8,30.34,NNW,340,0.0,2.0,83,0.00,CLR,CLR,0.00,0.0,WeatherDisplay:10.37,2013-02-21 12:34:00,
2013-02-21 06:39:00,22.3,17.9,30.35,NNW,340,0.0,1.0,83,0.00,CLR,CLR,0.00,0.0,WeatherDisplay:10.37,2013-02-21 12:39:00,
2013-02-21 06:44:00,22.3,17.9,30.35,NNW,340,0.0,2.0,83,0.00,CLR,CLR,0.00,0.0,WeatherDisplay:10.37,2013-02-21 12:44:00,
2013-02-21 06:49:00,22.4,17.7,30.36,NNW,340,0.0,1.0,82,0.00,CLR,CLR,0.00,0.0,WeatherDisplay:10.37,2013-02-21 12:49:00,
2013-02-21 06:54:00,22.5,18.4,30.36,NNW,340,0.0,2.0,84,0.00,CLR,CLR,0.00,0.0,WeatherDisplay:10.37,2013-02-21 12:54:00,
2013-02-21 06:59:00,22.5,18.1,30.36,NNW,340,0.0,1.0,83,0.00,CLR,CLR,0.00,0.0,WeatherDisplay:10.37,2013-02-21 12:59:00,
2013-02-21 07:04:00,22.6,18.2,30.36,NNW,340,1.0,2.0,83,0.00,CLR,CLR,0.00,0.0,WeatherDisplay:10.37,2013-02-21 13:04:00,
2013-02-21 07:09:00,22.7,18.6,30.36,NNW,340,0.0,1.0,84,0.00,CLR,CLR,0.00,0.0,WeatherDisplay:10.37,2013-02-21 13:09:00,
2013-02-21 07:14:00,22.7,18.3,30.36,NNW,340,0.0,1.0,83,0.00,CLR,CLR,0.00,0.0,WeatherDisplay:10.37,2013-02-21 13:14:00,
2013-02-21 07:19:00,22.8,18.4,30.36,NNW,340,1.0,2.0,83,0.00,CLR,CLR,0.00,0.0,WeatherDisplay:10.37,2013-02-21 13:19:00,
2013-02-21 07:24:00,22.9,18.5,30.35,NNW,340,1.0,3.0,83,0.00,CLR,CLR,0.00,0.0,WeatherDisplay:10.37,2013-02-21 13:24:00,
2013-02-21 07:29:00,23.0,18.3,30.34,North,351,3.0,5.0,82,0.00,CLR,CLR,0.00,0.0,WeatherDisplay:10.37,2013-02-21 13:29:00,
2013-02-21 07:34:00,23.1,18.4,30.33,NNE,16,2.0,6.0,82,0.00,CLR,CLR,0.00,0.0,WeatherDisplay:10.37,2013-02-21 13:34:00,
2013-02-21 07:39:00,23.3,18.6,30.33,NNE,24,5.0,6.0,82,0.00,CLR,CLR,0.00,0.0,WeatherDisplay:10.37,2013-02-21 13:39:00,
2013-02-21 07:44:00,23.5,18.8,30.33,NNE,20,3.0,6.0,82,0.00,CLR,CLR,0.00,0.0,WeatherDisplay:10.37,2013-02-21 13:44:00,
2013-02-21 07:49:00,23.6,19.2,30.33,NNE,22,3.0,5.0,83,0.00,CLR,CLR,0.00,0.0,WeatherDisplay:10.37,2013-02-21 13:49:00,
2013-02-21 07:54:00,23.9,19.2,30.33,NNE,21,2.0,6.0,82,0.00,CLR,CLR,0.00,0.0,WeatherDisplay:10.37,2013-02-21 13:54:00,
2013-02-21 07:59:00,24.1,19.7,30.34,NNE,16,1.0,5.0,83,0.00,CLR,CLR,0.00,0.0,WeatherDisplay:10.37,2013-02-21 13:59:00,
2013-02-21 08:04:00,24.3,19.6,30.34,NNE,22,3.0,4.0,82,0.00,CLR,CLR,0.00,0.0,WeatherDisplay:10.37,2013-02-21 14:04:00,
2013-02-21 08:09:00,24.5,19.8,30.33,NNE,29,3.0,6.0,82,0.00,CLR,CLR,0.00,0.0,WeatherDisplay:10.37,2013-02-21 14:09:00,
2013-02-21 08:14:00,24.7,20.0,30.33,NNE,29,2.0,5.0,82,0.00,CLR,CLR,0.00,0.0,WeatherDisplay:10.37,2013-02-21 14:14:00,
2013-02-21 08:19:00,24.8,20.1,30.32,NNE,33,3.0,5.0,82,0.00,CLR,CLR,0.00,0.0,WeatherDisplay:10.37,2013-02-21 14:19:00,
2013-02-21 08:24:00,25.1,20.6,30.32,NNE,33,2.0,5.0,83,0.00,CLR,CLR,0.00,0.0,WeatherDisplay:10.37,2013-02-21 14:24:00,
2013-02-21 08:29:00,25.2,20.5,30.31,NNE,33,3.0,6.0,82,0.00,CLR,CLR,0.00,0.0,WeatherDisplay:10.37,2013-02-21 14:29:00,
2013-02-21 08:34:00,25.5,20.7,30.32,NNE,28,2.0,6.0,82,0.00,CLR,CLR,0.00,0.0,WeatherDisplay:10.37,2013-02-21 14:34:00,
2013-02-21 08:39:00,25.7,20.9,30.32,NNE,23,2.0,4.0,82,0.00,CLR,CLR,0.00,0.0,WeatherDisplay:10.37,2013-02-21 14:39:00,
2013-02-21 08:44:00,25.8,21.1,30.32,NNE,26,3.0,5.0,82,0.00,CLR,CLR,0.00,0.0,WeatherDisplay:10.37,2013-02-21 14:44:00,
2013-02-21 08:49:00,26.1,21.6,30.32,NNE,32,2.0,8.0,83,0.00,CLR,CLR,0.00,0.0,WeatherDisplay:10.37,2013-02-21 14:49:00,
2013-02-21 08:54:00,26.4,21.7,30.33,NE,36,5.0,6.0,82,0.00,CLR,CLR,0.00,0.0,WeatherDisplay:10.37,2013-02-21 14:54:00,
2013-02-21 08:59:00,26.4,21.4,30.32,NNE,31,3.0,5.0,81,0.00,CLR,CLR,0.00,0.0,WeatherDisplay:10.37,2013-02-21 14:59:00,
2013-02-21 09:04:00,26.6,21.8,30.32,NNE,30,3.0,6.0,82,0.00,CLR,CLR,0.00,0.0,WeatherDisplay:10.37,2013-02-21 15:04:00,
2013-02-21 09:09:00,26.8,21.8,30.32,NNE,33,3.0,6.0,81,0.00,CLR,CLR,0.00,0.0,WeatherDisplay:10.37,2013-02-21 15:09:00,
2013-02-21 09:14:00,27.0,22.2,30.33,NNE,26,2.0,5.0,82,0.00,CLR,CLR,0.00,0.0,WeatherDisplay:10.37,2013-02-21 15:14:00,
2013-02-21 09:19:00,27.2,22.1,30.33,NNE,24,2.0,5.0,81,0.00,CLR,CLR,0.00,0.0,WeatherDisplay:10.37,2013-02-21 15:19:00,
2013-02-21 09:24:00,27.4,22.7,30.32,NNE,33,1.0,8.0,82,0.00,CLR,CLR,0.00,0.0,WeatherDisplay:10.37,2013-02-21 15:24:00,
2013-02-21 09:29:00,27.8,23.0,30.33,NE,43,3.0,5.0,82,0.00,CLR,CLR,0.00,0.0,WeatherDisplay:10.37,2013-02-21 15:29:00,
2013-02-21 09:34:00,28.0,23.2,30.33,ENE,71,3.0,7.0,82,0.00,CLR,CLR,0.00,0.0,WeatherDisplay:10.37,2013-02-21 15:34:00,
2013-02-21 09:39:00,28.3,23.5,30.34,East,83,2.0,6.0,82,0.00,CLR,CLR,0.00,0.0,WeatherDisplay:10.37,2013-02-21 15:39:00,
2013-02-21 09:44:00,28.5,23.7,30.34,East,79,3.0,5.0,82,0.00,CLR,CLR,0.00,0.0,WeatherDisplay:10.37,2013-02-21 15:44:00,
2013-02-21 09:49:00,28.8,23.7,30.34,East,83,6.0,9.0,81,0.00,CLR,CLR,0.00,0.0,WeatherDisplay:10.37,2013-02-21 15:49:00,
2013-02-21 09:54:00,29.2,24.3,30.34,East,92,5.0,10.0,82,0.00,CLR,CLR,0.00,0.0,WeatherDisplay:10.37,2013-02-21 15:54:00,
2013-02-21 09:59:00,29.4,24.3,30.34,East,94,6.0,9.0,81,0.00,CLR,CLR,0.00,0.0,WeatherDisplay:10.37,2013-02-21 15:59:00,
2013-02-21 10:04:00,29.6,24.8,30.33,East,96,6.0,10.0,82,0.00,CLR,CLR,0.00,0.0,WeatherDisplay:10.37,2013-02-21 16:04:00,
2013-02-21 10:09:00,30.0,24.8,30.33,East,89,6.0,12.0,81,0.00,CLR,CLR,0.00,0.0,WeatherDisplay:10.37,2013-02-21 16:09:00,
2013-02-21 10:14:00,30.1,24.7,30.32,East,85,7.0,13.0,80,0.00,CLR,CLR,0.00,0.0,WeatherDisplay:10.37,2013-02-21 16:14:00,
2013-02-21 10:19:00,30.1,24.7,30.32,ENE,78,7.0,12.0,80,0.00,CLR,CLR,0.00,0.0,WeatherDisplay:10.37,2013-02-21 16:19:00,
2013-02-21 10:24:00,30.2,24.8,30.31,East,93,8.0,13.0,80,0.00,CLR,CLR,0.00,0.0,WeatherDisplay:10.37,2013-02-21 16:24:00,
2013-02-21 10:29:00,30.2,25.1,30.31,East,93,7.0,12.0,81,0.00,CLR,CLR,0.00,0.0,WeatherDisplay:10.37,2013-02-21 16:29:00,
2013-02-21 10:34:00,30.3,25.2,30.32,East,89,7.0,12.0,81,0.00,CLR,CLR,0.00,0.0,WeatherDisplay:10.37,2013-02-21 16:34:00,
2013-02-21 10:39:00,30.3,24.6,30.32,East,99,8.0,12.0,79,0.00,CLR,CLR,0.00,0.0,WeatherDisplay:10.37,2013-02-21 16:39:00,
2013-02-21 10:44:00,30.4,25.3,30.33,ESE,102,7.0,10.0,81,0.00,CLR,CLR,0.00,0.0,WeatherDisplay:10.37,2013-02-21 16:44:00,
2013-02-21 10:49:00,30.6,25.2,30.34,ESE,103,8.0,12.0,80,0.00,CLR,CLR,0.00,0.0,WeatherDisplay:10.37,2013-02-21 16:49:00,
2013-02-21 10:54:00,30.4,25.0,30.33,East,91,5.0,9.0,80,0.00,CLR,CLR,0.00,0.0,WeatherDisplay:10.37,2013-02-21 16:54:00,
2013-02-21 10:59:00,30.5,25.4,30.33,East,92,8.0,13.0,81,0.00,CLR,CLR,0.00,0.0,WeatherDisplay:10.37,2013-02-21 16:59:00,
2013-02-21 11:04:00,30.5,25.1,30.32,East,93,7.0,12.0,80,0.00,CLR,CLR,0.00,0.0,WeatherDisplay:10.37,2013-02-21 17:04:00,
2013-02-21 11:09:00,30.5,25.1,30.31,East,92,6.0,12.0,80,0.00,CLR,CLR,0.00,0.0,WeatherDisplay:10.37,2013-02-21 17:09:00,
2013-02-21 11:14:00,30.5,25.1,30.29,East,91,8.0,13.0,80,0.00,CLR,CLR,0.00,0.0,WeatherDisplay:10.37,2013-02-21 17:14:00,
2013-02-21 11:19:00,30.6,25.1,30.28,East,90,7.0,12.0,80,0.00,CLR,CLR,0.00,0.0,WeatherDisplay:10.37,2013-02-21 17:19:00,
2013-02-21 11:24:00,30.6,25.2,30.27,East,92,8.0,12.0,80,0.00,CLR,CLR,0.00,0.0,WeatherDisplay:10.37,2013-02-21 17:24:00,
2013-02-21 11:29:00,30.7,25.3,30.27,East,85,6.0,13.0,80,0.00,CLR,CLR,0.00,0.0,WeatherDisplay:10.37,2013-02-21 17:29:00,
2013-02-21 11:34:00,30.9,25.5,30.27,East,82,8.0,13.0,80,0.00,CLR,CLR,0.00,0.0,WeatherDisplay:10.37,2013-02-21 17:34:00,
2013-02-21 11:39:00,31.0,25.6,30.27,East,82,6.0,12.0,80,0.00,CLR,CLR,0.00,0.0,WeatherDisplay:10.37,2013-02-21 17:39:00,
2013-02-21 11:44:00,30.8,25.1,30.27,East,85,8.0,14.0,79,0.00,CLR,CLR,0.00,0.0,WeatherDisplay:10.37,2013-02-21 17:44:00,
2013-02-21 11:49:00,30.7,25.0,30.27,East,85,8.0,12.0,79,0.00,CLR,CLR,0.00,0.0,WeatherDisplay:10.37,2013-02-21 17:49:00,
2013-02-21 11:54:00,30.8,25.4,30.27,ENE,77,8.0,12.0,80,0.00,CLR,CLR,0.00,0.0,WeatherDisplay:10.37,2013-02-21 17:54:00,
2013-02-21 11:59:00,30.7,25.3,30.28,ENE,73,5.0,10.0,80,0.00,CLR,CLR,0.00,0.0,WeatherDisplay:10.37,2013-02-21 17:59:00,
2013-02-21 12:04:00,30.8,25.1,30.28,East,83,7.0,12.0,79,0.00,CLR,CLR,0.00,0.0,WeatherDisplay:10.37,2013-02-21 18:04:00,
2013-02-21 12:09:00,30.7,25.0,30.27,ENE,78,3.0,12.0,79,0.00,CLR,CLR,0.00,0.0,WeatherDisplay:10.37,2013-02-21 18:09:00,
2013-02-21 12:14:00,30.7,25.0,30.27,East,83,7.0,13.0,79,0.00,CLR,CLR,0.00,0.0,WeatherDisplay:10.37,2013-02-21 18:14:00,
2013-02-21 12:19:00,30.7,25.0,30.27,East,91,8.0,15.0,79,0.00,CLR,CLR,0.00,0.0,WeatherDisplay:10.37,2013-02-21 18:19:00,
2013-02-21 12:24:00,30.8,25.1,30.25,East,81,5.0,10.0,79,0.00,CLR,CLR,0.00,0.0,WeatherDisplay:10.37,2013-02-21 18:24:00,
2013-02-21 12:29:00,30.9,25.2,30.25,ENE,76,7.0,12.0,79,0.00,CLR,CLR,0.00,0.0,WeatherDisplay:10.37,2013-02-21 18:29:00,
2013-02-21 12:34:00,30.8,24.7,30.24,East,85,7.0,14.0,78,0.00,CLR,CLR,0.00,0.0,WeatherDisplay:10.37,2013-02-21 18:34:00,
2013-02-21 12:39:00,30.7,24.7,30.23,East,84,8.0,14.0,78,0.00,CLR,CLR,0.00,0.0,WeatherDisplay:10.37,2013-02-21 18:39:00,
2013-02-21 12:44:00,30.9,25.2,30.23,East,79,7.0,12.0,79,0.00,CLR,CLR,0.00,0.0,WeatherDisplay:10.37,2013-02-21 18:44:00,
2013-02-21 12:49:00,31.1,25.3,30.22,ENE,74,6.0,13.0,79,0.00,CLR,CLR,0.00,0.0,WeatherDisplay:10.37,2013-02-21 18:49:00,
2013-02-21 12:54:00,31.0,24.9,30.20,ENE,71,8.0,12.0,78,0.00,CLR,CLR,0.00,0.0,WeatherDisplay:10.37,2013-02-21 18:54:00,
2013-02-21 12:59:00,30.8,25.1,30.20,East,83,7.0,10.0,79,0.00,CLR,CLR,0.00,0.0,WeatherDisplay:10.37,2013-02-21 18:59:00,
2013-02-21 13:04:00,30.8,25.1,30.19,East,84,7.0,14.0,79,0.00,CLR,CLR,0.00,0.0,WeatherDisplay:10.37,2013-02-21 19:04:00,
2013-02-21 13:09:00,31.1,25.3,30.19,ENE,73,6.0,13.0,79,0.00,CLR,CLR,0.00,0.0,WeatherDisplay:10.37,2013-02-21 19:09:00,
2013-02-21 13:14:00,31.2,25.4,30.18,ENE,60,3.0,12.0,79,0.00,CLR,CLR,0.00,0.0,WeatherDisplay:10.37,2013-02-21 19:14:00,
2013-02-21 13:19:00,31.3,25.6,30.18,ENE,65,6.0,14.0,79,0.00,CLR,CLR,0.00,0.0,WeatherDisplay:10.37,2013-02-21 19:19:00,
2013-02-21 13:24:00,31.4,25.6,30.18,ENE,71,6.0,12.0,79,0.00,CLR,CLR,0.00,0.0,WeatherDisplay:10.37,2013-02-21 19:24:00,
2013-02-21 13:29:00,31.3,25.3,30.17,ENE,65,6.0,13.0,78,0.00,CLR,CLR,0.00,0.0,WeatherDisplay:10.37,2013-02-21 19:29:00,
2013-02-21 13:34:00,31.3,25.5,30.17,ENE,65,7.0,12.0,79,0.00,CLR,CLR,0.00,0.0,WeatherDisplay:10.37,2013-02-21 19:34:00,
2013-02-21 13:39:00,31.2,25.4,30.17,ENE,64,6.0,12.0,79,0.00,CLR,CLR,0.00,0.0,WeatherDisplay:10.37,2013-02-21 19:39:00,
2013-02-21 13:44:00,31.1,25.4,30.17,ENE,60,7.0,12.0,79,0.00,CLR,CLR,0.00,0.0,WeatherDisplay:10.37,2013-02-21 19:44:00,
2013-02-21 13:49:00,31.0,25.3,30.18,NE,51,7.0,12.0,79,0.00,CLR,CLR,0.00,0.0,WeatherDisplay:10.37,2013-02-21 19:49:00,
2013-02-21 13:54:00,30.9,25.2,30.18,NE,52,3.0,9.0,79,0.00,CLR,CLR,0.00,0.0,WeatherDisplay:10.37,2013-02-21 19:54:00,
2013-02-21 13:59:00,30.8,25.4,30.19,ENE,61,5.0,10.0,80,0.00,CLR,CLR,0.00,0.0,WeatherDisplay:10.37,2013-02-21 19:59:00,
2013-02-21 14:04:00,30.8,25.1,30.18,ENE,60,5.0,10.0,79,0.00,CLR,CLR,0.00,0.0,WeatherDisplay:10.37,2013-02-21 20:04:00,
2013-02-21 14:09:00,30.7,25.2,30.19,NE,47,7.0,15.0,80,0.00,CLR,CLR,0.00,0.0,WeatherDisplay:10.37,2013-02-21 20:09:00,
2013-02-21 14:14:00,30.5,25.4,30.20,NE,41,6.0,14.0,81,0.00,CLR,CLR,0.00,0.0,WeatherDisplay:10.37,2013-02-21 20:14:00,
2013-02-21 14:19:00,30.5,25.0,30.20,NE,54,5.0,13.0,80,0.00,CLR,CLR,0.00,0.0,WeatherDisplay:10.37,2013-02-21 20:19:00,
2013-02-21 14:24:00,30.3,25.2,30.21,ENE,64,3.0,12.0,81,0.00,CLR,CLR,0.00,0.0,WeatherDisplay:10.37,2013-02-21 20:24:00,
2013-02-21 14:29:00,30.2,25.1,30.21,ENE,69,6.0,9.0,81,0.00,CLR,CLR,0.00,0.0,WeatherDisplay:10.37,2013-02-21 20:29:00,
2013-02-21 14:34:00,30.1,24.7,30.21,ENE,74,6.0,12.0,80,0.00,CLR,CLR,0.00,0.0,WeatherDisplay:10.37,2013-02-21 20:34:00,
2013-02-21 14:39:00,30.0,24.6,30.21,ENE,75,6.0,10.0,80,0.00,CLR,CLR,0.00,0.0,WeatherDisplay:10.37,2013-02-21 20:39:00,
2013-02-21 14:44:00,29.9,24.8,30.21,ENE,72,2.0,12.0,81,0.00,CLR,CLR,0.00,0.0,WeatherDisplay:10.37,2013-02-21 20:44:00,
2013-02-21 14:49:00,29.9,24.8,30.22,ENE,70,5.0,9.0,81,0.00,CLR,CLR,0.00,0.0,WeatherDisplay:10.37,2013-02-21 20:49:00,
2013-02-21 14:54:00,29.8,24.7,30.22,ENE,71,5.0,10.0,81,0.00,CLR,CLR,0.00,0.0,WeatherDisplay:10.37,2013-02-21 20:54:00,
2013-02-21 14:59:00,29.8,24.7,30.22,ENE,67,3.0,10.0,81,0.00,CLR,CLR,0.00,0.0,WeatherDisplay:10.37,2013-02-21 20:59:00,
2013-02-21 15:04:00,29.7,24.6,30.21,ENE,60,5.0,12.0,81,0.00,CLR,CLR,0.00,0.0,WeatherDisplay:10.37,2013-02-21 21:04:00,
2013-02-21 15:09:00,29.6,24.5,30.21,ENE,64,5.0,12.0,81,0.00,CLR,CLR,0.00,0.0,WeatherDisplay:10.37,2013-02-21 21:09:00,
2013-02-21 15:14:00,29.5,24.7,30.21,ENE,69,3.0,9.0,82,0.00,CLR,CLR,0.00,0.0,WeatherDisplay:10.37,2013-02-21 21:14:00,
2013-02-21 15:19:00,29.4,24.6,30.21,ENE,73,3.0,7.0,82,0.00,CLR,CLR,0.00,0.0,WeatherDisplay:10.37,2013-02-21 21:19:00,
2013-02-21 15:24:00,29.4,24.6,30.20,East,81,6.0,8.0,82,0.00,CLR,CLR,0.00,0.0,WeatherDisplay:10.37,2013-02-21 21:24:00,
2013-02-21 15:29:00,29.3,24.2,30.21,East,100,8.0,12.0,81,0.00,CLR,CLR,0.00,0.0,WeatherDisplay:10.37,2013-02-21 21:29:00,
2013-02-21 15:34:00,28.8,23.7,30.21,ESE,114,9.0,14.0,81,0.00,CLR,CLR,0.00,0.0,WeatherDisplay:10.37,2013-02-21 21:34:00,
2013-02-21 15:39:00,28.4,23.6,30.21,ESE,116,10.0,17.0,82,0.00,CLR,CLR,0.00,0.0,WeatherDisplay:10.37,2013-02-21 21:39:00,
2013-02-21 15:44:00,28.2,23.4,30.20,ESE,113,10.0,16.0,82,0.00,CLR,CLR,0.00,0.0,WeatherDisplay:10.37,2013-02-21 21:44:00,
2013-02-21 15:49:00,28.1,23.3,30.20,ESE,104,9.0,15.0,82,0.00,CLR,CLR,0.00,0.0,WeatherDisplay:10.37,2013-02-21 21:49:00,
2013-02-21 15:54:00,28.0,22.9,30.20,East,98,10.0,16.0,81,0.00,CLR,CLR,0.00,0.0,WeatherDisplay:10.37,2013-02-21 21:54:00,
2013-02-21 15:59:00,27.9,22.5,30.20,East,98,9.0,15.0,80,0.00,CLR,CLR,0.00,0.0,WeatherDisplay:10.37,2013-02-21 21:59:00,
2013-02-21 16:04:00,27.8,22.7,30.20,East,99,9.0,14.0,81,0.00,CLR,CLR,0.00,0.0,WeatherDisplay:10.37,2013-02-21 22:04:00,
2013-02-21 16:09:00,27.7,22.4,30.20,East,98,9.0,15.0,80,0.00,CLR,CLR,0.00,0.0,WeatherDisplay:10.37,2013-02-21 22:09:00,
2013-02-21 16:14:00,27.6,22.2,30.19,East,100,12.0,16.0,80,0.00,CLR,CLR,0.00,0.0,WeatherDisplay:10.37,2013-02-21 22:14:00,
2013-02-21 16:19:00,27.4,22.0,30.18,East,101,12.0,16.0,80,0.00,CLR,CLR,0.00,0.0,WeatherDisplay:10.37,2013-02-21 22:19:00,
2013-02-21 16:24:00,27.3,22.2,30.18,East,98,8.0,15.0,81,0.00,CLR,CLR,0.00,0.0,WeatherDisplay:10.37,2013-02-21 22:24:00,
2013-02-21 16:29:00,27.2,22.1,30.18,East,94,7.0,13.0,81,0.00,CLR,CLR,0.00,0.0,WeatherDisplay:10.37,2013-02-21 22:29:00,
2013-02-21 16:39:00,27.1,22.1,30.17,East,91,9.0,13.0,81,0.00,CLR,CLR,0.00,0.0,WeatherDisplay:10.37,2013-02-21 22:39:00,
2013-02-21 16:44:00,27.1,22.1,30.17,East,92,8.0,12.0,81,0.00,CLR,CLR,0.00,0.0,WeatherDisplay:10.37,2013-02-21 22:44:00,
2013-02-21 16:49:00,27.0,22.0,30.16,East,94,8.0,14.0,81,0.00,CLR,CLR,0.00,0.0,WeatherDisplay:10.37,2013-02-21 22:49:00,
2013-02-21 16:54:00,27.0,22.0,30.16,East,91,9.0,14.0,81,0.00,CLR,CLR,0.00,0.0,WeatherDisplay:10.37,2013-02-21 22:54:00,
2013-02-21 16:59:00,27.1,22.0,30.16,East,89,8.0,15.0,81,0.00,CLR,CLR,0.00,0.0,WeatherDisplay:10.37,2013-02-21 22:59:00,
2013-02-21 17:04:00,27.1,22.0,30.16,East,91,9.0,14.0,81,0.00,CLR,CLR,0.00,0.0,WeatherDisplay:10.37,2013-02-21 23:04:00,
2013-02-21 17:09:00,27.1,22.0,30.16,East,86,8.0,12.0,81,0.00,CLR,CLR,0.00,0.0,WeatherDisplay:10.37,2013-02-21 23:09:00,
2013-02-21 17:14:00,27.1,22.0,30.15,East,81,8.0,14.0,81,0.00,CLR,CLR,0.00,0.0,WeatherDisplay:10.37,2013-02-21 23:14:00,
2013-02-21 17:19:00,27.1,22.0,30.15,East,84,7.0,13.0,81,0.00,CLR,CLR,0.00,0.0,WeatherDisplay:10.37,2013-02-21 23:19:00,
2013-02-21 17:24:00,27.1,22.0,30.15,East,81,10.0,15.0,81,0.00,CLR,CLR,0.00,0.0,WeatherDisplay:10.37,2013-02-21 23:24:00,
2013-02-21 17:29:00,27.1,22.3,30.16,East,87,8.0,15.0,82,0.00,CLR,CLR,0.00,0.0,WeatherDisplay:10.37,2013-02-21 23:29:00,
2013-02-21 17:39:00,27.1,22.0,30.16,East,93,8.0,15.0,81,0.00,CLR,CLR,0.00,0.0,WeatherDisplay:10.37,2013-02-21 23:39:00,
2013-02-21 17:44:00,27.1,22.3,30.17,East,97,8.0,14.0,82,0.00,CLR,CLR,0.00,0.0,WeatherDisplay:10.37,2013-02-21 23:44:00,
2013-02-21 17:49:00,27.1,22.0,30.17,East,95,10.0,17.0,81,0.00,CLR,CLR,0.00,0.0,WeatherDisplay:10.37,2013-02-21 23:49:00,
2013-02-21 17:54:00,27.2,22.1,30.16,East,94,10.0,16.0,81,0.00,CLR,CLR,0.00,0.0,WeatherDisplay:10.37,2013-02-21 23:54:00,
2013-02-21 17:59:00,27.2,22.4,30.16,East,92,8.0,14.0,82,0.00,CLR,CLR,0.00,0.0,WeatherDisplay:10.37,2013-02-21 23:59:00,
2013-02-21 18:09:00,27.2,22.1,30.14,East,92,9.0,14.0,81,0.00,CLR,CLR,0.00,0.0,WeatherDisplay:10.37,2013-02-22 00:09:00,
2013-02-21 18:14:00,27.2,22.4,30.14,East,93,9.0,14.0,82,0.00,CLR,CLR,0.00,0.0,WeatherDisplay:10.37,2013-02-22 00:14:00,
2013-02-21 18:19:00,27.2,22.4,30.13,East,91,9.0,16.0,82,0.00,CLR,CLR,0.00,0.0,WeatherDisplay:10.37,2013-02-22 00:19:00,
2013-02-21 18:24:00,27.2,22.5,30.13,East,91,9.0,13.0,82,0.00,CLR,CLR,0.00,0.0,WeatherDisplay:10.37,2013-02-22 00:24:00,
2013-02-21 18:29:00,27.3,22.5,30.13,East,90,10.0,15.0,82,0.00,CLR,CLR,0.00,0.0,WeatherDisplay:10.37,2013-02-22 00:29:00,
2013-02-21 18:34:00,27.3,22.5,30.12,East,91,9.0,13.0,82,0.00,CLR,CLR,0.00,0.0,WeatherDisplay:10.37,2013-02-22 00:34:00,
2013-02-21 18:44:00,27.4,22.3,30.12,East,90,9.0,14.0,81,0.00,CLR,CLR,0.00,0.0,WeatherDisplay:10.37,2013-02-22 00:44:00,
2013-02-21 18:49:00,27.4,22.3,30.12,East,90,10.0,15.0,81,0.00,CLR,CLR,0.00,0.0,WeatherDisplay:10.37,2013-02-22 00:49:00,
2013-02-21 18:54:00,27.4,22.4,30.12,East,92,10.0,17.0,81,0.00,CLR,CLR,0.00,0.0,WeatherDisplay:10.37,2013-02-22 00:54:00,
2013-02-21 18:59:00,27.5,22.4,30.12,East,95,12.0,18.0,81,0.00,CLR,CLR,0.00,0.0,WeatherDisplay:10.37,2013-02-22 00:59:00,
2013-02-21 19:04:00,27.5,22.4,30.12,East,95,13.0,16.0,81,0.00,CLR,CLR,0.00,0.0,WeatherDisplay:10.37,2013-02-22 01:04:00,
2013-02-21 19:09:00,27.5,22.4,30.12,East,97,12.0,15.0,81,0.00,CLR,CLR,0.00,0.0,WeatherDisplay:10.37,2013-02-22 01:09:00,
2013-02-21 19:19:00,27.6,22.5,30.13,ESE,103,13.0,16.0,81,0.00,CLR,CLR,0.00,0.0,WeatherDisplay:10.37,2013-02-22 01:19:00,
2013-02-21 19:24:00,27.6,22.5,30.12,East,96,9.0,17.0,81,0.00,CLR,CLR,0.00,0.0,WeatherDisplay:10.37,2013-02-22 01:24:00,
2013-02-21 19:34:00,27.6,22.5,30.11,East,97,9.0,14.0,81,0.00,CLR,CLR,0.00,0.0,WeatherDisplay:10.37,2013-02-22 01:34:00,
2013-02-21 19:39:00,27.6,22.8,30.10,East,92,10.0,14.0,82,0.00,CLR,CLR,0.00,0.0,WeatherDisplay:10.37,2013-02-22 01:39:00,
2013-02-21 19:44:00,27.6,22.8,30.10,East,95,9.0,15.0,82,0.00,CLR,CLR,0.00,0.0,WeatherDisplay:10.37,2013-02-22 01:44:00,
2013-02-21 19:49:00,27.6,22.8,30.09,East,95,10.0,13.0,82,0.00,CLR,CLR,0.00,0.0,WeatherDisplay:10.37,2013-02-22 01:49:00,
2013-02-21 19:54:00,27.6,22.8,30.09,East,96,9.0,14.0,82,0.00,CLR,CLR,0.00,0.0,WeatherDisplay:10.37,2013-02-22 01:54:00,
2013-02-21 19:59:00,27.6,22.8,30.08,East,93,9.0,14.0,82,0.00,CLR,CLR,0.00,0.0,WeatherDisplay:10.37,2013-02-22 01:59:00,
2013-02-21 20:04:00,27.7,22.9,30.08,East,93,12.0,15.0,82,0.00,CLR,CLR,0.00,0.0,WeatherDisplay:10.37,2013-02-22 02:04:00,
2013-02-21 20:09:00,27.8,23.0,30.08,East,97,10.0,16.0,82,0.00,CLR,CLR,0.00,0.0,WeatherDisplay:10.37,2013-02-22 02:09:00,
2013-02-21 20:14:00,27.8,23.0,30.06,East,97,12.0,17.0,82,0.00,CLR,CLR,0.00,0.0,WeatherDisplay:10.37,2013-02-22 02:14:00,
2013-02-21 20:24:00,27.8,22.7,30.05,East,96,14.0,20.0,81,0.00,CLR,CLR,0.00,0.0,WeatherDisplay:10.37,2013-02-22 02:24:00,
2013-02-21 20:29:00,27.5,22.8,30.03,East,98,15.0,23.0,82,0.00,CLR,CLR,0.00,0.0,WeatherDisplay:10.37,2013-02-22 02:29:00,
2013-02-21 20:34:00,27.4,22.9,30.02,East,97,14.0,21.0,83,0.00,CLR,CLR,0.00,0.0,WeatherDisplay:10.37,2013-02-22 02:34:00,
2013-02-21 20:39:00,27.2,23.0,30.01,East,95,18.0,25.0,84,0.00,CLR,CLR,0.00,0.0,WeatherDisplay:10.37,2013-02-22 02:39:00,
2013-02-21 20:44:00,27.0,23.1,30.00,East,94,14.0,18.0,85,0.00,CLR,CLR,0.00,0.0,WeatherDisplay:10.37,2013-02-22 02:44:00,
2013-02-21 20:49:00,26.9,23.3,30.00,East,94,16.0,21.0,86,0.00,CLR,CLR,0.00,0.0,WeatherDisplay:10.37,2013-02-22 02:49:00,
2013-02-21 20:54:00,26.8,23.4,29.99,East,94,16.0,29.0,87,0.00,CLR,CLR,0.00,0.0,WeatherDisplay:10.37,2013-02-22 02:54:00,
2013-02-21 21:04:00,26.7,23.4,29.99,East,91,14.0,22.0,87,0.00,CLR,CLR,0.00,0.0,WeatherDisplay:10.37,2013-02-22 03:04:00,
2013-02-21 21:09:00,26.8,23.4,29.99,East,93,16.0,23.0,87,0.00,CLR,CLR,0.00,0.0,WeatherDisplay:10.37,2013-02-22 03:09:00,
2013-02-21 21:14:00,26.7,23.4,29.98,East,92,14.0,22.0,87,0.00,CLR,CLR,0.00,0.0,WeatherDisplay:10.37,2013-02-22 03:14:00,
2013-02-21 21:19:00,26.7,23.6,29.99,East,92,15.0,21.0,88,0.00,CLR,CLR,0.00,0.0,WeatherDisplay:10.37,2013-02-22 03:19:00,
2013-02-21 21:24:00,26.7,23.4,29.99,East,94,16.0,22.0,87,0.00,CLR,CLR,0.00,0.0,WeatherDisplay:10.37,2013-02-22 03:24:00,
2013-02-21 21:34:00,26.7,23.6,29.99,East,90,14.0,20.0,88,0.00,CLR,CLR,0.00,0.0,WeatherDisplay:10.37,2013-02-22 03:34:00,
2013-02-21 21:39:00,26.6,23.8,29.99,East,89,14.0,21.0,89,0.00,CLR,CLR,0.00,0.0,WeatherDisplay:10.37,2013-02-22 03:39:00,
2013-02-21 21:44:00,26.6,23.8,29.98,East,91,14.0,22.0,89,0.00,CLR,CLR,0.00,0.0,WeatherDisplay:10.37,2013-02-22 03:44:00,
2013-02-21 21:49:00,26.5,24.0,29.98,East,90,14.0,22.0,90,0.00,CLR,CLR,0.00,0.0,WeatherDisplay:10.37,2013-02-22 03:49:00,
2013-02-21 21:54:00,26.3,24.0,29.98,East,89,14.0,22.0,91,0.00,CLR,CLR,0.00,0.0,WeatherDisplay:10.37,2013-02-22 03:54:00,
2013-02-21 21:59:00,26.3,23.8,29.98,East,92,15.0,24.0,90,0.00,CLR,CLR,0.00,0.0,WeatherDisplay:10.37,2013-02-22 03:59:00,
2013-02-21 22:04:00,26.3,24.0,29.98,East,94,13.0,22.0,91,0.00,CLR,CLR,0.00,0.0,WeatherDisplay:10.37,2013-02-22 04:04:00,
2013-02-21 22:14:00,26.2,23.9,29.98,East,91,13.0,22.0,91,0.00,CLR,CLR,0.00,0.0,WeatherDisplay:10.37,2013-02-22 04:14:00,
2013-02-21 22:19:00,26.2,23.9,29.99,East,96,14.0,22.0,91,0.00,CLR,CLR,0.00,0.0,WeatherDisplay:10.37,2013-02-22 04:19:00,
2013-02-21 22:24:00,26.2,23.9,29.99,East,96,13.0,18.0,91,0.00,CLR,CLR,0.00,0.0,WeatherDisplay:10.37,2013-02-22 04:24:00,
2013-02-21 22:29:00,26.2,23.9,29.99,East,93,9.0,17.0,91,0.00,CLR,CLR,0.00,0.0,WeatherDisplay:10.37,2013-02-22 04:29:00,
2013-02-21 22:39:00,26.0,24.0,29.98,East,92,13.0,17.0,92,0.00,CLR,CLR,0.00,0.0,WeatherDisplay:10.37,2013-02-22 04:39:00,
2013-02-21 22:44:00,25.9,24.2,29.97,East,94,10.0,16.0,93,0.00,CLR,CLR,0.00,0.0,WeatherDisplay:10.37,2013-02-22 04:44:00,
2013-02-21 22:49:00,25.9,24.1,29.97,East,92,10.0,16.0,93,0.00,CLR,CLR,0.00,0.0,WeatherDisplay:10.37,2013-02-22 04:49:00,
2013-02-21 22:54:00,25.9,24.1,29.97,East,89,13.0,17.0,93,0.00,CLR,CLR,0.00,0.0,WeatherDisplay:10.37,2013-02-22 04:54:00,
2013-02-21 22:59:00,25.9,24.2,29.97,East,93,12.0,17.0,93,0.00,CLR,CLR,0.00,0.0,WeatherDisplay:10.37,2013-02-22 04:59:00,
2013-02-21 23:04:00,25.8,24.1,29.97,East,91,10.0,17.0,93,0.00,CLR,CLR,0.00,0.0,WeatherDisplay:10.37,2013-02-22 05:04:00,
2013-02-21 23:09:00,25.8,24.1,29.96,East,90,9.0,16.0,93,0.00,CLR,CLR,0.00,0.0,WeatherDisplay:10.37,2013-02-22 05:09:00,
2013-02-21 23:14:00,25.8,24.0,29.96,East,93,12.0,16.0,93,0.00,CLR,CLR,0.00,0.0,WeatherDisplay:10.37,2013-02-22 05:14:00,
2013-02-21 23:19:00,25.8,24.1,29.97,East,92,12.0,17.0,93,0.00,CLR,CLR,0.00,0.0,WeatherDisplay:10.37,2013-02-22 05:19:00,
2013-02-21 23:24:00,25.8,24.1,29.96,East,95,12.0,16.0,93,0.00,CLR,CLR,0.00,0.0,WeatherDisplay:10.37,2013-02-22 05:24:00,
2013-02-21 23:29:00,25.8,24.1,29.96,East,95,12.0,16.0,93,0.00,CLR,CLR,0.00,0.0,WeatherDisplay:10.37,2013-02-22 05:29:00,
2013-02-21 23:34:00,25.8,24.1,29.96,East,91,13.0,16.0,93,0.00,CLR,CLR,0.00,0.0,WeatherDisplay:10.37,2013-02-22 05:34:00,
2013-02-21 23:39:00,25.8,24.1,29.96,East,97,12.0,16.0,93,0.00,CLR,CLR,0.00,0.0,WeatherDisplay:10.37,2013-02-22 05:39:00,
2013-02-21 23:44:00,25.8,24.1,29.96,East,98,10.0,17.0,93,0.00,CLR,CLR,0.00,0.0,WeatherDisplay:10.37,2013-02-22 05:44:00,
2013-02-21 23:49:00,25.8,24.1,29.96,East,98,10.0,16.0,93,0.00,CLR,CLR,0.00,0.0,WeatherDisplay:10.37,2013-02-22 05:49:00,
2013-02-21 23:54:00,25.8,24.1,29.95,East,97,9.0,16.0,93,0.00,CLR,CLR,0.00,0.0,WeatherDisplay:10.37,2013-02-22 05:54:00,
2013-02-21 23:59:00,25.8,24.1,29.95,East,95,13.0,17.0,93,0.00,CLR,CLR,0.00,0.0,WeatherDisplay:10.37,2013-02-22 05:59:00,